Kuchera_Ratio
0.0 0.0 0.0 0.0 0.0 0.0 0.0 0.0 0.0 0.0 0.0 0.0 0.0 0.0 0.0 0.0 0.0 0.0 0.0 0.0 0.0 0.0 0.0 0.0 0.0 0.0 0.0 0.0 0.0 0.0 0.0 0.0 0.0 0.0 0.0 0.0 0.0 0.0 0.0 0.0 0.0 0.0 0.0
0.0 0.0 0.0 0.0 0.0 0.0 0.0 0.0 0.0 0.0 0.0 0.0 0.0 0.0 0.0 0.0 0.0 0.0 0.0 0.0 0.0 0.0 0.0 0.0 0.0 0.0 0.0 0.0 0.0 0.0 0.0 0.0 0.0 0.0 0.0 0.0 0.0 0.0 0.0 0.0 0.0 0.0 0.0
0.0 0.0 0.0 0.0 0.0 0.0 0.0 0.0 0.0 0.0 0.0 0.0 0.0 0.0 0.0 0.0 0.0 0.0 0.0 0.0 0.0 0.0 0.0 0.0 0.0 0.0 0.0 0.0 0.0 0.0 0.0 0.0 0.0 0.0 0.0 0.0 0.0 0.0 0.0 0.0 0.0 0.0 0.0
0.0 0.0 0.0 0.0 0.0 0.0 0.0 0.0 0.0 0.0 0.0 0.0 0.0 0.0 0.0 0.0 0.0 0.0 0.0 0.0 0.0 0.0 0.0 0.0 0.0 0.0 0.0 0.0 0.0 0.0 0.0 0.0 0.0 0.0 0.0 0.0 0.0 0.0 0.0 0.0 0.0 0.0 0.0
0.0 0.0 0.0 0.0 0.0 0.0 0.0 0.0 0.0 0.0 0.0 0.0 0.0 0.0 0.0 0.0 0.0 0.0 0.0 0.0 0.0 0.0 0.0 0.0 0.0 0.0 0.0 0.0 0.0 0.0 0.0 0.0 0.0 0.0 0.0 0.0 0.0 0.0 0.0 0.0 0.0 0.0 0.0
0.0 0.0 0.0 0.0 0.0 0.0 0.0 0.0 0.0 0.0 0.0 0.0 0.0 0.0 0.0 0.0 0.0 0.0 0.0 0.0 0.0 0.0 0.0 0.0 0.0 0.0 0.0 0.0 0.0 0.0 0.0 0.0 0.0 0.0 0.0 0.0 0.0 0.0 0.0 0.0 0.0 0.0 0.0
0.0 0.0 0.0 0.0 0.0 0.0 0.0 0.0 0.0 0.0 0.0 0.0 0.0 0.0 0.0 0.0 0.0 0.0 0.0 0.0 0.0 0.0 0.0 0.0 0.0 0.0 0.0 0.0 0.0 0.0 0.0 0.0 0.0 0.0 0.0 0.0 0.0 0.0 0.0 0.0 0.0 0.0 0.0
0.0 0.0 0.0 0.0 0.0 0.0 0.0 0.0 0.0 0.0 0.0 0.0 0.0 0.0 0.0 0.0 0.0 0.0 0.0 0.0 0.0 0.0 0.0 0.0 0.0 0.0 0.0 0.0 0.0 0.0 0.0 0.0 0.0 0.0 0.0 0.0 0.0 0.0 0.0 0.0 0.0 0.0 0.0
0.0 0.0 0.0 0.0 0.0 0.0 0.0 0.0 0.0 0.0 0.0 0.0 0.0 0.0 0.0 0.0 0.0 0.0 0.0 0.0 0.0 0.0 0.0 0.0 0.0 0.0 0.0 0.0 0.0 0.0 0.0 0.0 0.0 0.0 0.0 0.0 0.0 0.0 0.0 0.0 0.0 0.0 0.0
0.0 0.0 0.0 0.0 0.0 0.0 0.0 0.0 0.0 0.0 0.0 0.0 0.0 0.0 0.0 0.0 0.0 0.0 0.0 0.0 0.0 0.0 0.0 0.0 0.0 0.0 0.0 0.0 0.0 0.0 0.0 0.0 0.0 0.0 0.0 0.0 0.0 0.0 0.0 0.0 0.0 0.0 0.0
0.0 0.0 0.0 0.0 0.0 0.0 0.0 0.0 0.0 0.0 0.0 0.0 0.0 0.0 0.0 0.0 0.0 0.0 0.0 0.0 0.0 0.0 0.0 0.0 0.0 0.0 0.0 0.0 0.0 0.0 0.0 0.0 0.0 0.0 0.0 0.0 0.0 0.0 0.0 0.0 0.0 0.0 0.0
0.0 0.0 0.0 0.0 0.0 0.0 0.0 0.0 0.0 0.0 0.0 0.0 0.0 0.0 0.0 0.0 0.0 0.0 0.0 0.0 0.0 0.0 0.0 0.0 0.0 0.0 0.0 0.0 0.0 0.0 0.0 0.0 0.0 0.0 0.0 0.0 0.0 0.0 0.0 0.0 0.2 0.5 0.7
0.0 0.0 0.0 0.0 0.0 0.0 0.0 0.0 0.0 0.0 0.0 0.0 0.0 0.0 0.0 0.0 0.0 0.0 0.0 0.0 0.0 0.0 0.0 0.0 0.0 0.0 0.0 0.0 0.0 0.0 0.0 0.0 0.0 0.0 0.0 0.2 0.3 0.4 0.6 1.0 1.2 1.3 0.8
0.0 0.0 0.0 0.0 0.0 0.0 0.0 0.0 0.0 0.0 0.0 0.0 0.0 0.0 0.0 0.0 0.0 0.0 0.0 0.0 0.0 0.0 0.0 0.0 0.0 0.0 0.0 0.0 0.0 0.0 0.2 0.6 0.9 1.2 1.3 1.4 1.6 2.0 2.1 2.0 2.0 2.0 2.3
0.0 0.0 0.0 0.0 0.0 0.0 0.0 0.0 0.0 0.0 0.0 0.0 0.0 0.0 0.0 0.0 0.0 0.0 0.0 0.0 0.0 0.0 0.0 0.0 0.0 0.0 0.0 0.0 0.5 1.1 1.6 2.0 2.2 2.4 2.7 2.9 2.5 2.4 4.1 4.4 4.5 4.2 3.9
0.0 0.0 0.0 0.0 0.0 0.0 0.0 0.0 0.0 0.0 0.0 0.0 0.0 0.0 0.0 0.0 0.0 0.0 0.0 0.0 0.0 0.0 0.0 0.0 0.0 0.0 0.0 0.0 0.0 1.8 2.6 3.3 3.6 4.0 4.5 2.6 1.9 2.9 1.2 0.6 0.4 3.7 6.4
0.0 0.0 0.0 0.0 0.0 0.0 0.0 0.0 0.0 0.0 0.0 0.0 0.0 0.0 0.0 0.0 0.0 0.0 0.0 0.0 0.0 0.0 0.0 0.0 0.0 0.0 0.5 0.0 0.0 0.0 4.3 5.1 5.5 6.1 6.5 5.4 0.7 2.7 4.6 1.7 0.0 0.4 0.0
0.0 0.0 0.0 0.0 0.0 0.0 0.0 0.0 0.0 0.0 0.0 0.0 0.0 0.0 0.0 0.0 0.0 0.0 0.0 0.0 0.0 0.0 0.1 0.4 1.1 2.3 2.4 0.0 0.0 0.0 5.5 6.4 6.8 5.9 6.3 7.8 7.4 5.2 5.7 6.0 7.7 6.5 4.2
0.0 0.0 0.0 0.0 0.0 0.0 0.0 0.0 0.0 0.0 0.0 0.0 0.0 0.0 0.0 0.0 0.0 0.0 0.0 0.0 0.0 0.8 1.3 2.1 3.4 4.5 5.3 0.0 0.0 0.0 7.8 7.8 8.6 6.6 5.5 6.4 7.4 3.0 0.0 6.9 9.2 9.4 7.5
0.0 0.0 0.0 0.0 0.0 0.0 0.0 0.0 0.0 0.0 0.0 0.0 0.0 0.0 0.0 0.0 0.0 0.0 0.0 0.5 2.3 2.8 3.3 3.6 4.2 5.1 6.4 0.0 0.0 0.0 7.4 9.4 8.8 8.0 6.7 0.0 5.8 0.8 0.0 7.6 10.3 11.6 9.6
0.1 0.0 0.5 1.0 1.1 2.0 2.1 1.2 1.4 1.5 0.4 0.7 0.0 0.0 0.0 0.3 1.1 1.8 2.2 2.5 2.9 3.5 4.9 5.8 6.4 7.8 8.3 8.6 0.0 0.0 7.1 8.3 9.0 8.5 8.1 7.1 0.0 0.0 0.0 0.7 9.5 8.7 7.1
4.3 3.4 2.8 3.4 3.5 3.5 3.7 3.6 3.0 3.2 2.9 2.6 2.8 3.2 2.7 1.7 1.5 2.2 3.3 4.2 4.8 5.7 6.6 6.8 6.9 7.2 8.3 3.7 1.0 0.0 0.4 4.3 8.8 9.1 8.8 7.2 0.8 0.0 0.0 1.8 1.9 1.9 2.4
8.3 7.1 5.9 5.2 4.9 5.2 5.2 5.1 4.9 4.5 4.6 4.7 4.4 4.2 4.4 4.5 5.0 5.3 6.1 7.0 7.6 7.9 8.3 8.6 8.7 9.2 10.2 11.3 1.8 1.9 0.8 1.2 6.5 8.7 6.9 3.1 2.2 1.6 2.9 1.3 1.4 1.8 8.8
11.9 11.2 9.8 8.2 6.9 6.2 6.1 6.5 6.5 6.4 6.6 6.6 6.6 6.9 7.5 8.0 8.0 8.4 8.9 9.2 9.5 9.6 9.9 10.6 10.9 11.9 12.4 12.4 12.7 10.5 9.8 4.1 5.5 5.5 7.8 6.1 5.4 4.5 6.2 6.4 7.0 8.0 9.9
13.0 12.8 12.5 11.8 10.9 10.3 9.8 9.6 9.4 9.8 10.4 10.2 10.1 9.8 9.6 10.2 10.2 10.4 10.8 10.8 11.0 11.9 12.0 12.3 12.8 13.2 13.5 13.2 10.8 11.2 11.8 12.6 9.9 11.3 13.6 14.1 14.0 14.1 13.6 13.0 12.5 12.1 12.2
13.6 13.6 13.6 13.1 13.0 12.7 12.4 12.3 12.4 12.7 12.9 12.6 12.7 12.7 12.5 12.3 12.2 12.1 12.2 12.4 12.8 12.1 11.5 9.7 12.8 12.8 9.1 7.3 7.0 7.3 8.0 8.6 8.1 12.9 15.1 15.4 15.0 14.9 14.4 14.0 13.4 12.9 12.0